Weather History for Monett, MO

Change the Weather History Date:

Saturday, January 5, 2013

  Actual Average (KJLN) Record (KJLN)
Temperature  
Mean Temperature 36 °F 35 °F  
Max Temperature 41 °F 44 °F 71 °F (2008)
Min Temperature 30 °F 25 °F -5 °F (1959)
Degree Days  
Heating Degree Days 30 30  
Month to date heating degree days 150  
Since 1 July heating degree days 1767  
Cooling Degree Days 0 0  
Month to date cooling degree days 0  
Year to date cooling degree days 0  
Moisture  
Dew Point 28 °F    
Average Humidity 77    
Maximum Humidity 93    
Minimum Humidity 69    
Precipitation  
Precipitation 0.00 in 0.07 in 1.33 in (2005)
Month to date precipitation 0.36  
Year to date precipitation 0.36  
Sea Level Pressure  
Sea Level Pressure 30.22 in    
Wind  
Wind Speed 8 mph (SSW)    
Max Wind Speed 17 mph    
Max Gust Speed 22 mph    
Visibility 10 miles    
Events Rain    
T = Trace of Precipitation, MM = Missing Value Source: NWS Daily Summary

Daily Weather History Graph

Daily Weather History Graph

Search for Another Location

Airport:

Trip Planner

Search our weather history database for the weather conditions in past years. The results will help you decide how hot, cold, wet, or windy it might be!

Date:

Astronomy

Jan. 05, 2013 Rise Set
Actual Time 7:29 AM CST 5:13 PM CST
Civil Twilight 7:00 AM CST 5:42 PM CST
Nautical Twilight 6:28 AM CST 6:14 PM CST
Astronomical Twilight 5:57 AM CST 6:46 PM CST
Moon 12:41 AM CST (1/5) 11:59 AM CST (1/5)
Length of Visible Light 10h 41m
Length of Day
9h 44m
Last Quarter, 44% of the Moon is Illuminated
Jan 5
Last Quarter
Jan 11
New
Jan 18
First Quarter
Jan 26
Full
Feb 3
Last Quarter

Hourly Weather History & Observations

Time (CST) Temp. Windchill Dew Point Humidity Pressure Visibility Wind Dir Wind Speed Gust Speed Precip Events Conditions
12:15 AM 32.0 °F 25.6 °F 23.0 °F 69% 30.29 in 10.0 mi South 6.9 mph - N/A   Clear
12:35 AM 32.0 °F 26.4 °F 23.0 °F 69% 30.29 in 10.0 mi South 5.8 mph - N/A   Clear
12:55 AM 30.2 °F 23.4 °F 23.0 °F 75% 30.28 in 10.0 mi South 6.9 mph - N/A   Clear
1:15 AM 32.0 °F 24.8 °F 23.0 °F 69% 30.27 in 10.0 mi South 8.1 mph - N/A   Clear
1:35 AM 32.0 °F 24.8 °F 23.0 °F 69% 30.27 in 10.0 mi South 8.1 mph - N/A   Clear
1:55 AM 32.0 °F 25.6 °F 23.0 °F 69% 30.28 in 10.0 mi South 6.9 mph - N/A   Clear
2:15 AM 32.0 °F 27.5 °F 23.0 °F 69% 30.27 in 10.0 mi South 4.6 mph - N/A   Clear
2:35 AM 32.0 °F 25.6 °F 23.0 °F 69% 30.27 in 10.0 mi South 6.9 mph - N/A   Mostly Cloudy
2:55 AM 32.0 °F 27.5 °F 23.0 °F 69% 30.28 in 10.0 mi SSW 4.6 mph - N/A   Overcast
3:15 AM 32.0 °F 24.8 °F 23.0 °F 69% 30.28 in 10.0 mi SSW 8.1 mph - N/A   Overcast
3:35 AM 32.0 °F 26.4 °F 23.0 °F 69% 30.28 in 10.0 mi SW 5.8 mph - N/A   Overcast
3:55 AM 32.0 °F 28.7 °F 24.8 °F 75% 30.27 in 10.0 mi WSW 3.5 mph - N/A   Overcast
4:15 AM 32.0 °F 26.4 °F 24.8 °F 75% 30.27 in 10.0 mi SW 5.8 mph - N/A   Overcast
4:35 AM 32.0 °F 26.4 °F 24.8 °F 75% 30.27 in 10.0 mi SSW 5.8 mph - N/A   Overcast
4:55 AM 33.8 °F 27.7 °F 24.8 °F 70% 30.27 in 10.0 mi SSW 6.9 mph - N/A   Overcast
5:15 AM 33.8 °F 27.7 °F 24.8 °F 70% 30.27 in 10.0 mi SSW 6.9 mph - N/A   Overcast
5:55 AM 33.8 °F 29.6 °F 24.8 °F 70% 30.27 in 10.0 mi SSW 4.6 mph - N/A   Overcast
7:15 AM 33.8 °F 27.7 °F 26.6 °F 75% 30.26 in 10.0 mi SSE 6.9 mph - N/A   Overcast
7:35 AM 33.8 °F 27.0 °F 26.6 °F 75% 30.26 in 10.0 mi South 8.1 mph - N/A   Overcast
7:55 AM 33.8 °F 26.4 °F 26.6 °F 75% 30.26 in 10.0 mi South 9.2 mph - N/A   Overcast
8:35 AM 35.6 °F 26.6 °F 26.6 °F 70% 30.27 in 10.0 mi South 13.8 mph - N/A   Overcast
8:55 AM 35.6 °F 27.5 °F 28.4 °F 75% 30.27 in 10.0 mi SSW 11.5 mph - N/A   Overcast
9:15 AM 35.6 °F 28.0 °F 30.2 °F 81% 30.27 in 10.0 mi SSW 10.4 mph - N/A Rain Light Rain
9:35 AM 35.6 °F 27.5 °F 30.2 °F 81% 30.26 in 10.0 mi SSW 11.5 mph 17.3 mph N/A   Overcast
9:55 AM 35.6 °F 25.9 °F 30.2 °F 81% 30.26 in 10.0 mi South 16.1 mph 20.7 mph N/A   Overcast
10:15 AM 35.6 °F 26.6 °F 30.2 °F 81% 30.26 in 10.0 mi South 13.8 mph - N/A   Overcast
10:35 AM 37.4 °F 28.9 °F 30.2 °F 75% 30.25 in 10.0 mi South 13.8 mph - N/A   Overcast
10:55 AM 37.4 °F 28.9 °F 30.2 °F 75% 30.25 in 10.0 mi South 13.8 mph - N/A   Overcast
11:15 AM 37.4 °F 28.5 °F 30.2 °F 75% 30.23 in 10.0 mi South 15.0 mph - N/A   Overcast
11:35 AM 37.4 °F 29.8 °F 30.2 °F 75% 30.22 in 10.0 mi South 11.5 mph - N/A   Overcast
11:55 AM 39.2 °F 31.6 °F 30.2 °F 70% 30.20 in 10.0 mi South 12.7 mph - N/A   Overcast
12:15 PM 39.2 °F 31.2 °F 30.2 °F 70% 30.18 in 10.0 mi South 13.8 mph - N/A   Overcast
12:35 PM 39.2 °F 31.2 °F 30.2 °F 70% 30.18 in 10.0 mi SSW 13.8 mph 21.9 mph N/A   Overcast
12:55 PM 41.0 °F 32.5 °F 32.0 °F 70% 30.16 in 10.0 mi SSW 17.3 mph 20.7 mph N/A   Overcast
1:35 PM 39.2 °F 31.2 °F 32.0 °F 75% 30.15 in 10.0 mi SW 13.8 mph - N/A   Overcast
1:55 PM 41.0 °F 34.3 °F 32.0 °F 70% 30.14 in 10.0 mi SSW 11.5 mph - N/A   Overcast
2:15 PM 41.0 °F 33.9 °F 32.0 °F 70% 30.14 in 10.0 mi SSW 12.7 mph 18.4 mph N/A   Overcast
2:55 PM 41.0 °F 35.8 °F 32.0 °F 70% 30.15 in 10.0 mi SSW 8.1 mph 16.1 mph N/A   Overcast
3:15 PM 41.0 °F 34.7 °F 32.0 °F 70% 30.15 in 10.0 mi SSW 10.4 mph 17.3 mph N/A   Overcast
3:35 PM 41.0 °F 34.3 °F 32.0 °F 70% 30.14 in 10.0 mi SSW 11.5 mph 16.1 mph N/A   Overcast
4:15 PM 41.0 °F 34.3 °F 32.0 °F 70% 30.14 in 10.0 mi SW 11.5 mph - N/A   Overcast
4:55 PM 41.0 °F 34.7 °F 32.0 °F 70% 30.16 in 10.0 mi SW 10.4 mph 18.4 mph N/A   Overcast
5:15 PM 41.0 °F 34.3 °F 32.0 °F 70% 30.17 in 10.0 mi WSW 11.5 mph - N/A   Overcast
5:35 PM 39.2 °F 33.6 °F 32.0 °F 75% 30.17 in 10.0 mi SW 8.1 mph - N/A   Overcast
6:15 PM 37.4 °F 32.8 °F 32.0 °F 81% 30.19 in 10.0 mi WSW 5.8 mph - N/A   Overcast
6:55 PM 35.6 °F 31.7 °F 32.0 °F 87% 30.19 in 10.0 mi WSW 4.6 mph - N/A   Scattered Clouds
7:15 PM 33.8 °F 27.7 °F 30.2 °F 87% 30.19 in 10.0 mi SSW 6.9 mph - N/A   Scattered Clouds
7:55 PM 33.8 °F 27.7 °F 30.2 °F 87% 30.19 in 10.0 mi SSW 6.9 mph - N/A   Clear
8:15 PM 32.0 °F 24.8 °F 30.2 °F 93% 30.18 in 10.0 mi SSW 8.1 mph - N/A   Clear
8:35 PM 33.8 °F 28.6 °F 30.2 °F 87% 30.19 in 10.0 mi SW 5.8 mph - N/A   Clear
8:55 PM 32.0 °F 26.4 °F 30.2 °F 93% 30.19 in 10.0 mi SW 5.8 mph - N/A   Clear
9:15 PM 32.0 °F 26.4 °F 30.2 °F 93% 30.19 in 10.0 mi SSW 5.8 mph - N/A   Clear
9:35 PM 32.0 °F 27.5 °F 30.2 °F 93% 30.19 in 10.0 mi SW 4.6 mph - N/A   Clear
9:55 PM 32.0 °F 26.4 °F 30.2 °F 93% 30.19 in 10.0 mi SSW 5.8 mph - N/A   Clear
10:15 PM 32.0 °F 26.4 °F 30.2 °F 93% 30.19 in 10.0 mi SSW 5.8 mph - N/A   Clear
10:35 PM 32.0 °F 25.6 °F 30.2 °F 93% 30.20 in 10.0 mi SSW 6.9 mph - N/A   Clear
10:55 PM 32.0 °F 25.6 °F 30.2 °F 93% 30.19 in 10.0 mi SW 6.9 mph - N/A   Clear
11:15 PM 32.0 °F 25.6 °F 30.2 °F 93% 30.19 in 10.0 mi SSW 6.9 mph - N/A   Clear
11:35 PM 32.0 °F 26.4 °F 30.2 °F 93% 30.20 in 10.0 mi SW 5.8 mph - N/A   Clear
11:55 PM 32.0 °F 25.6 °F 30.2 °F 93% 30.20 in 10.0 mi WSW 6.9 mph - N/A   Clear